Showing default

CSC-2, 58021

Orbit data source: Space-Track

CSC-2, 58021 is a payload satellite owned by ISIS BV (NL) in SSO that was launched on Mon, 09 Oct 2023 UTC via a VEGA launch vehicle from the French Guiana (FRGUI). Payload-class satellites include a variety of spacecraft equipped with specific instruments for various scientific and technological missions. These include communications satellites like Starlink; space stations such as the ISS; scientific satellites like the Hubble; Earth observation satellites from companies like Planet Labs, Umbra, and HawkEye 360; GPS; miniature CubeSats for education and research; and military/defense satellites.

Loading next visibility...
Identifier
58021, 2023-155F
Orbit
SSO
Country
Flag of UnknownUnknown / NETH
Related business
Manufacturer
ISIS BV
Mission
Operational Commercial Technology
Bus & Motor
CUBESAT 6UXL, Unknown motor
Mass
~10 kg wet, ~10 kg dry
Launch date (UTC)
2023-10-09 (2 years ago)
Launch vehicle
VEGA
Launch site
French Guiana (FRGUI)
Object type
Payload
Rocket body
Debris
Shape & HBR
Box + 2 Pan, 0.3 m
Radar Cross Section
0.098 m², Medium (>0.1 m² and < 1m²)

Expand to show TLE details & history
Last TLE update: 21 hours ago

TLE from 21 hours ago
0 CSC-2
1 58021U 23155F   25307.43757720  .00010516  00000-0  54436-3 0  9992
2 58021  97.5696  19.0571 0004345 307.8683  52.2157 15.16401222113904
Epoch: 2025-11-03T10:30Z
TLE epoch observation values (Epoch: 2025-11-03T10:30:06.670Z)
Latitude
0.00008°
Longitude
178.59034°
Altitude
517.973 km
Speed
7.606 km/s
True Right ascension
01h 16m 13s
True Declination
0° 00' 00"
Sunlit
Object was in full shadow at epoch
Visualization orbit readout
Latitude
Unknown
Longitude
Unknown
Altitude
Unknown
Speed
Unknown
Apparent Right ascension
Unknown
Apparent Declination
Unknown
Sunlit
N/A
Visualization observer readout
Local Sidereal Time
03:51:51
Azimuth
Unknown
Elevation
Unknown
Doppler factor
Unknown
Orbital elements
Apogee altitude
516.7 km
Perigee altitude
510.711 km
Semi-major axis
6,891.843 km
Eccentricity
0.00043
Inclination
97.5696°
RAAN
19.0571°
Arg. of periapsis
307.8683°
True anomaly
52.25506°
Mean anomaly
52.2157°
Eccentric anomaly
52.23538°
Mean motion
3.7935 °/min
Orbital period
94.9 mins
BSTAR
0.00054436
Loading maneuver chart data...
Computing Atmospheric mass density...
Loading historical data...
Loading historical data...
Loading historical data...
Loading historical data...
Loading historical data...
Loading historical data...
Loading historical data...

Documentation

Showing up to 5 results
|